Regional Weather Roundup
Issued by NWS

Home | Current Version | Previous Version | Graphics & Text | Print | Product List | Glossary On
Versions: 1 2 3 4 5 6 7 8 9 10 11 12 13 14 15 16 17 18 19 20 21 22 23 24 25 26 27 28 29 30 31 32 33 34 35 36 37 38 39 40 41 42 43 44 45 46 47 48 49 50
998
ASUS45 KTFX 212010
RWRMT
MONTANA REGIONAL WEATHER ROUNDUP
NATIONAL WEATHER SERVICE GREAT FALLS MT
100 PM MST SAT JAN 21 2017

NOTE: "FAIR" INDICATES FEW OR NO CLOUDS BELOW 12000 FEET WITH NO
SIGNIFICANT WEATHER AND/OR OBSTRUCTIONS TO VISIBILITY.

MTZ001>007-043-212100-
WEST OF THE DIVIDE

CITY           SKY/WX    TMP DP  RH WIND       PRES   REMARKS
KALISPELL      PTSUNNY   26  20  77 CALM      29.51R
MISSOULA       LGT SNOW  24  24 100 W3        29.55R FOG
BUTTE          MOSUNNY   23  15  71 CALM      29.43R
MULLAN PASS    SNOW      24  22  91 CALM      29.41R VSB 1/2
ANACONDA         N/A     28  18  64 N7        29.45R WCI  21
DEER LODGE       N/A     25  16  68 CALM      29.50R
EUREKA           N/A     30  21  69 CALM      29.55R
HAMILTON         N/A     28  21  74 CALM      29.51S
PLAINS           N/A     24  20  85 CALM      29.57R VSB 1
RONAN            N/A     25  22  88 CALM      29.59R
$$

MTZ008-052>055-212100-
SOUTHWEST MONTANA

CITY           SKY/WX    TMP DP  RH WIND       PRES   REMARKS
BOZEMAN        CLOUDY    23  13  65 CALM      29.47R
DILLON         SUNNY     37  17  44 S9        29.45R WCI  30
W YELLOWSTONE  CLOUDY    23  18  80 CALM      29.45R
ENNIS          CLOUDY    30  23  74 CALM      29.48R
TWIN BRIDGES     N/A     24  13  63 E5        29.52R
$$

MTZ009-010-012-014-046-048-049-054-212100-
EAST SLOPES AND CENTRAL MONTANA

CITY           SKY/WX    TMP DP  RH WIND       PRES   REMARKS
CUT BANK       MOSUNNY   35  23  61 N8        29.44R WCI  29
GREAT FALLS    CLOUDY    31  21  66 W6        29.44R WCI  25
MALMSTROM AFB  CLOUDY    31  24  75 W5        29.46R
HELENA         CLOUDY    16  10  77 CALM      29.48S
AUGUSTA          N/A     34  19  52 N6        29.42R WCI  29
BOWMANS CRNR     N/A     27  19  72 SW3       29.41R
CHOTEAU          N/A     34  23  64 N9        29.46R WCI  26
CONRAD           N/A     30  24  78 W5        29.52R
POWER            N/A     24  20  84 W5        29.44R
RAYNESFORD     PTSUNNY   35  19  52 NW6       29.43R WCI  30
ULM              N/A     31  21  68 MISG      29.45R
$$

MTZ011-013-016-021-045-047-050-051-212100-
NORTH CENTRAL MONTANA

CITY           SKY/WX    TMP DP  RH WIND       PRES   REMARKS
HAVRE          SUNNY     29  25  85 SW15      29.45R WCI  18
LEWISTOWN      CLOUDY    32  21  64 NW5       29.41R
CHINOOK          N/A     34  27  75 W10       29.45R WCI  26
DENTON           N/A     35  23  62 N3        29.40R
FORT BENTON      N/A     36  25  64 MISG      29.48R
GEYSER           N/A     36  21  53 E3        29.41R
GRASS RANGE      N/A     39  19  45 W13       29.37R WCI  31
JUDITH GAP       N/A     33  17  51 CALM      29.39S
ROY              N/A     37  26  64 MISG      29.40R
STANFORD         N/A     35  22  60 NE8       29.40S WCI  28
WINIFRED         N/A     33  23  66 NW9       29.41S WCI  26
$$

MTZ017>020-022>027-061-062-212100-
NORTHEAST MONTANA

CITY           SKY/WX    TMP DP  RH WIND       PRES   REMARKS
GLASGOW        SUNNY     24  20  84 NW8       29.40S WCI  15
JORDAN           N/A     39  32  76 W5        29.40S
SIDNEY         MOSUNNY   34  26  72 SW8       29.39R WCI  27
WOLF POINT     SUNNY     26  20  77 W10       29.42R WCI  16
PLENTYWOOD       N/A     28  27  93 NW14      29.36R WCI  17
POPLAR           N/A     25  19  80 W13       29.42R WCI  13
SCOBEY           N/A     30  21  69 S7        29.39R WCI  23
$$

MTZ028>42-056>058-212100-
SOUTHCENTRAL AND SOUTHEAST MONTANA

CITY           SKY/WX    TMP DP  RH WIND       PRES   REMARKS
BAKER          SUNNY     28  23  81 NW7       29.40R WCI  21
BILLINGS       PTSUNNY   29  20  69 SW7       29.43R WCI  22
LIVINGSTON     CLOUDY    27  14  58 NW15      29.41S WCI  15
MILES CITY     PTSUNNY   24  19  81 S5        29.44R HAZE
BIG TIMBER     CLOUDY    32  18  55 W15       29.43R WCI  22
EKALAKA          N/A     31  25  78 SW9       29.44  WCI  23
FORSYTH          N/A     23  21  93 CALM      29.44S
HARLOWTON        N/A     37  19  47 W7        29.40S
LAUREL           N/A     31  20  63 SW3       29.47R
$$

REGIONAL REPORTS...DAKOTAS

CITY           SKY/WX    TMP DP  RH WIND       PRES   REMARKS
WILLISTON      CLOUDY    31  25  78 W10       29.37R WCI  22
MINOT          CLOUDY    31  28  89 S6        29.36R WCI  25
DICKINSON      CLOUDY    34  26  72 W15       29.34R WCI  24
BEACH            N/A     30  27  86 W14       29.41S WCI  20
CROSBY         CLOUDY    27  27 100 CALM      29.38R
TIOGA          CLOUDY    28  28 100 W9        29.36R WCI  20
WATFORD CITY     N/A     32  27  80 W7        29.37S WCI  26
BISMARCK       CLOUDY    31  28  89 W6        29.40R FOG     WCI  25
GRAND FORKS    CLOUDY    36  33  89 CALM      29.42R
FARGO          CLOUDY    39  35  86 SE5       29.40S
BUFFALO SD       N/A     36  28  73 W9        29.33R WCI  29
RAPID CITY     SUNNY     40  31  70 S5        29.40S
$$

REGIONAL REPORTS...WYOMING/IDAHO/WASHINGTON

CITY           SKY/WX    TMP DP  RH WIND       PRES   REMARKS
GILLETTE       SUNNY     38  28  67 NE5       29.39S
SHERIDAN       SUNNY     31  20  63 VRB6      29.40S WCI  25
BUFFALO WY     SUNNY     32  23  69 SE7       29.39S WCI  26
CODY           SUNNY     26  16  65 NE7       29.40R WCI  18
YELLOWSTONE LA   N/A     18  13  80 E3        29.43S
IDAHO FALLS    CLOUDY    29  27  92 SW14      29.52R WCI  18
SALMON         CLOUDY    19  16  86 CALM      29.55R
BOISE          CLOUDY    36  33  89 SE7       29.59R WCI  30
SPOKANE        PTSUNNY   38  31  76 SE7       29.48R
$$

REGIONAL REPORTS...ALBERTA

CITY           SKY/WX    TMP DP  RH WIND       PRES   REMARKS
EDMONTON         N/A     18  14  86 NW3       29.58R VSB 1/4
CALGARY        MOSUNNY   32  19  59 NW6       29.47R WCI  26
LETHBRIDGE     PTSUNNY   32  25  74 W7        29.47R WCI  26
MEDICINE HAT   CLOUDY    23  21  93 W10       29.48R FOG     WCI  12
WATERTON GATE    N/A     37  14  38 N2          N/A
CARDSTON         N/A     34  19  55 N3          N/A
MILK RIVER       N/A     36  23  60 NW9         N/A  WCI  29
$$

REGIONAL REPORTS...SASKATCHEWAN

CITY           SKY/WX    TMP DP  RH WIND       PRES   REMARKS
SWIFT CURRENT  FRZ RAIN  25  25 100 W13       29.37R VSB 1/8 WCI  13
REGINA         CLOUDY    25  25 100 NW9       29.35R FOG     WCI  15
SASKATOON      CLOUDY    28  27  93 N7        29.42S FOG     WCI  21
CYPRESS HILLS    N/A     34  25  69 NW8         N/A  WCI  27
VAL MARIE        N/A     36  25  64 NW5         N/A
ROCKGLEN         N/A     28  27  93 NW9         N/A  WCI  20
ASSINIBOIA       N/A     21  21 100 N6          N/A  WCI  14
$$




USA.gov is the U.S. government's official web portal to all federal, state and local government web resources and services.